Location: Kelerdut
(48.6287°N, 4.5437°W)
Time: 20:23:24
(UTC+00:00)

Daily predictions for brighter satellites

Satellite Brightness Start Highest point End
(mag) Time Altitude Azimuth Time Altitude Azimuth Time Altitude Azimuth
Cosmos 1862 3.9 20:10:51 10° NNW 20:14:49 61° W 20:18:46 10° S
FALCON 9 DEB 4.1 20:13:53 10° WNW 20:16:38 32° SW 20:19:22 10° SSE
USA 215 4.4 20:15:01 10° ENE 20:21:09 45° N 20:27:17 10° WNW
USA 305 4.2 20:18:02 10° WNW 20:22:04 39° N 20:26:06 10° ENE
Cosmos 1933 4.4 20:19:00 10° SSE 20:22:26 28° E 20:25:55 10° NNE
FALCON 9 DEB 4.4 20:20:13 10° W 20:22:51 27° SW 20:25:28 10° SSE
USA 245 4.5 20:24:47 10° ENE 20:25:16 10° ENE 20:25:45 10° NE
Cosmos 1242 Rocket 3.8 20:25:01 10° SE 20:27:56 23° E 20:30:49 10° NE
OBJECT-B 2.1 20:25:20 10° S 20:28:25 41° W 20:31:32 10° NNW
Cosmos 1553 Rocket 4.0 20:24:31 10° S 20:30:37 77° E 20:36:52 10° NNE
BREEZE M DEB (TANK) 2.7 20:23:22 10° W 20:30:52 78° N 20:33:33 10° E
FALCON 9 DEB 4.2 20:29:00 10° W 20:31:43 29° SW 20:34:25 10° SSE
Cosmos 1437 Rocket 2.8 20:27:58 10° S 20:31:46 60° E 20:35:39 10° NNE
Resurs 01 Rocket 1.7 20:30:32 10° SSE 20:34:56 64° ENE 20:39:21 10° N
Sich 1 3.1 20:34:02 10° N 20:38:19 60° ENE 20:42:37 10° SSE
Spot 2 Rocket 4.4 20:34:15 10° SE 20:38:44 33° ENE 20:43:13 10° N
Cosmos 2082 Rocket 4.1 20:37:07 10° N 20:40:58 18° NE 20:44:48 10° E
USA 306 4.1 20:37:15 10° WNW 20:41:18 40° N 20:45:21 10° ENE
Meteor 1-20 Rocket 4.3 20:35:41 10° N 20:41:19 65° ENE 20:46:49 10° SSE
BREEZE-M DEB (TANK) 4.3 20:42:20 10° WSW 20:43:22 12° SSW 20:44:31 10° S
CZ-4C R/B 3.5 20:36:46 10° NW 20:43:22 47° NE 20:51:08 10° ESE
Gbstr 26 Del rocket 4.5 20:36:34 10° WSW 20:44:36 83° NNW 20:51:34 10° ENE
Cosmos 1417 Rocket 4.5 20:38:25 10° S 20:44:38 83° E 20:50:50 10° N
Cosmos 1782 3.8 20:43:16 11° SSE 20:46:31 28° E 20:49:57 10° NNE
ERS-1 Rocket 4.0 20:50:52 13° ESE 20:54:41 31° ENE 20:59:04 10° N
Cosmos 1503 Rocket 4.2 20:51:03 10° S 20:56:02 51° ESE 21:01:05 10° NNE
SPOT 5 4.1 20:52:52 13° ESE 20:56:42 32° ENE 21:01:18 10° N
Intercosmos 24 3.6 20:54:45 10° S 20:58:35 80° E 21:02:10 10° NNE
SOZ 4.2 20:55:51 10° WSW 20:58:48 87° SSE 21:01:02 10° ENE
USA 290 2.2 20:57:16 10° NNW 21:00:33 84° WSW 21:02:58 17° SSE
Cosmos 1151 Rocket 3.5 20:58:02 11° SSE 21:01:53 43° E 21:06:03 10° NNE
CREW DRAGON DEMO-1 DEB 3.7 20:59:27 10° WNW 21:01:59 40° N 21:04:31 10° ENE
Cosmos 1602 3.8 20:59:33 10° N 21:03:23 61° ENE 21:06:19 16° SSE
Terra 3.1 21:02:23 14° ESE 21:05:30 26° ENE 21:09:26 10° N
USA 307 3.9 21:02:38 10° WNW 21:06:44 43° N 21:10:51 10° E
Cosmos 2278 Rocket 3.4 21:05:44 16° SE 21:08:19 22° E 21:12:31 10° NE
Ariane Rocket 4.3 21:05:04 10° SSW 21:09:44 37° W 21:14:26 10° NNW
Cosmos 1606 4.4 21:07:26 10° SW 21:10:54 34° WNW 21:14:25 10° N
Meteor 1-25 Rocket 4.4 21:05:19 10° NNW 21:11:11 81° W 21:17:00 10° S
CZ-2C R/B 3.6 21:07:54 10° NNE 21:12:22 68° ESE 21:16:52 10° S
SL-4 R/B 3.8 21:14:45 10° W 21:18:19 24° SW 21:21:08 14° S
X-37B 1.2 21:16:02 10° W 21:19:03 38° S 21:20:09 28° SE
Cosmos 1515 Rocket 4.5 21:17:35 21° SE 21:19:41 31° E 21:23:35 10° NNE
Cosmos 1844 Rocket 3.1 21:14:40 10° SW 21:20:12 66° WNW 21:25:48 10° NNE
USA 308 3.8 21:16:08 10° WNW 21:20:18 46° NNE 21:24:24 10° E
Cosmos 2084 4.2 21:17:53 16° S 21:20:29 29° ESE 21:24:10 10° ENE
SPOT 1/Viking Rocket 3.6 21:16:47 15° SSE 21:21:12 88° W 21:26:27 10° NNW
MetOp-B 4.4 21:18:14 12° S 21:23:14 70° WSW 21:28:37 10° NNW
ARIANE 5 R/B 2.6 21:20:39 20° SSE 21:23:33 69° ENE 21:27:52 10° N
Cosmos 1437 2.9 21:25:46 34° SE 21:26:24 41° E 21:29:07 10° NNE
Cosmos 1354 Rocket 3.9 21:22:04 10° SSW 21:27:18 80° ESE 21:32:34 10° NNE
Cosmos 1633 Rocket 3.1 21:23:48 10° N 21:28:13 84° W 21:31:23 19° S
Cosmos 1812 3.3 21:31:31 28° SE 21:32:59 40° E 21:36:37 10° NNE
Cosmos 1470 Rocket 3.6 21:32:58 10° N 21:37:28 72° E 21:39:57 26° SSE
Cosmos 2184 Rocket 4.4 21:31:40 10° N 21:37:43 48° ENE 21:41:19 23° SE
Meteor 1-5 Rocket 4.2 21:33:32 10° N 21:38:56 62° ENE 21:42:00 25° SSE
Cosmos 1709 Rocket 4.2 21:33:03 10° NNW 21:39:09 69° W 21:44:27 14° S
Cosmos 1328 Rocket 3.5 21:36:50 16° S 21:40:20 85° E 21:44:48 10° N
Cosmos 1844 4.4 21:35:05 10° SW 21:40:43 58° WNW 21:46:20 10° NNE
NOSS 3-4 (A) 4.3 21:34:34 10° NW 21:41:13 53° NE 21:47:02 17° ESE
NOSS 3-4 (C) 4.3 21:34:40 10° NW 21:41:19 53° NE 21:47:09 17° ESE
ATLAS 5 CENTAUR R/B 2.7 21:37:35 10° NW 21:43:04 56° SW 21:47:13 22° SSE
Cosmos 2074 Rocket 4.2 21:39:30 10° N 21:45:44 57° ENE 21:49:23 25° SE
CARTOSAT-1 3.6 21:44:07 25° S 21:46:37 77° WSW 21:50:58 10° NNW
Cosmos 1666 2.8 21:47:25 10° N 21:51:07 55° ENE 21:52:11 39° SE
NOSS 3-3 (A) 3.8 21:45:34 10° SSW 21:51:17 70° SE 21:57:51 10° NE
NOSS 3-3 (C) 3.8 21:45:40 10° SSW 21:51:23 70° SE 21:57:57 10° NE
Cosmos 1933 Rocket 3.5 21:47:41 10° N 21:52:02 67° ENE 21:53:49 34° SSE
Cosmos 1833 Rocket 2.7 21:46:57 10° NNW 21:52:40 78° ENE 21:55:42 29° SE
ATLAS 2AS CENTAUR R/B 3.7 21:47:30 10° NW 21:54:41 44° NNE 22:00:31 14° ESE
Meteor 1-14 Rocket 4.4 21:49:02 10° NNW 21:54:57 73° W 21:58:48 22° S
Cosmos 2315 Rocket 4.3 21:50:20 10° SSW 21:56:41 69° WNW 22:03:05 10° N
BREEZE-M DEB (TANK) 1.1 21:56:05 10° WNW 21:57:58 73° WNW 21:57:58 73° WNW
BREEZE-M DEB (TANK) 3.9 21:50:14 10° WSW 22:00:59 69° NNW 22:04:05 10° ENE
Cosmos 1538 Rocket 4.0 21:55:59 10° NNW 22:01:24 79° ENE 22:03:56 32° SSE
USA 245 4.3 22:01:05 17° WSW 22:01:28 18° W 22:03:09 10° NW
USA 305 3.2 21:58:14 10° WNW 22:02:29 66° NNE 22:04:41 27° E
USA 215 4.1 21:57:17 10° E 22:03:29 48° NNE 22:09:42 10° WNW
Iridium 4 Rocket 3.7 22:01:47 26° S 22:05:05 77° E 22:11:01 10° N
Resurs 01 Rocket 4.2 22:09:09 10° SW 22:11:52 16° W 22:14:35 10° NW
Cosmos 158 Rocket 4.0 22:08:48 10° NNW 22:13:40 62° ENE 22:15:28 37° SE
SJ 16-02 1.4 22:15:15 43° SSE 22:16:22 57° ESE 22:20:44 10° NNE
Cosmos 2228 Rocket 3.3 22:17:34 43° SE 22:18:32 53° E 22:22:53 10° NNE
Cosmos 1680 Rocket 4.3 22:14:09 10° NNW 22:19:13 42° ENE 22:21:27 28° ESE
Meteor 1-27 Rocket 4.1 22:18:37 34° SSE 22:20:47 51° E 22:26:29 10° NNE
USA 306 2.9 22:17:21 10° WNW 22:21:39 79° NNE 22:23:04 41° ESE
COSMOS 2406 3.4 22:17:43 10° NNW 22:23:21 65° WSW 22:25:47 34° S
Cosmos 2082 Rocket 2.2 22:20:25 10° NNW 22:26:04 75° ENE 22:28:19 37° SE
Meteor 2-6 Rocket 4.2 22:23:24 23° SSW 22:26:50 74° WNW 22:32:22 10° N
deb Kosmos-1763 4.0 22:25:16 10° NNW 22:28:47 63° WSW 22:29:05 59° SW
CZ-4C R/B 3.2 22:25:13 10° NW 22:32:21 63° SW 22:36:28 31° SSE
Gbstr 26 Del rocket 4.4 22:24:52 10° W 22:32:29 69° N 22:38:47 10° E
H-2A R/B 3.6 22:28:33 10° N 22:32:45 74° WNW 22:34:17 38° SSW
BREEZE-M R/B 3.5 22:30:37 10° W 22:31:52 27° W 22:31:52 27° W
SL-24 DEB 4.1 22:31:53 45° S 22:33:19 84° W 22:37:57 10° N
ERS-1 Rocket 3.9 22:30:51 24° SSW 22:33:22 41° W 22:38:07 10° NNW
SPOT 5 3.9 22:32:05 24° SSW 22:34:37 41° W 22:39:35 10° NNW
Cosmos 1271 Rocket 2.8 22:35:28 50° SSW 22:36:25 77° W 22:40:27 10° N
CREW DRAGON DEMO-1 DEB 4.3 22:33:51 10° WNW 22:35:18 28° WNW 22:35:18 28° WNW
Meteor 1-11 Rocket 3.9 22:36:48 10° NNW 22:42:47 76° W 22:45:14 37° S
Terra 2.6 22:41:15 31° SSW 22:43:02 45° W 22:47:37 10° NNW
Cosmos 1295 Rocket 4.5 22:36:45 10° N 22:43:09 83° E 22:45:45 39° SSE
USA 307 2.8 22:42:42 10° WNW 22:47:00 81° SSW 22:47:31 67° SE
Cosmos 1340 Rocket 2.9 22:45:16 10° N 22:49:20 63° ENE 22:49:40 60° ESE
Cosmos 2278 Rocket 2.4 22:47:29 17° SW 22:51:52 69° WNW 22:57:32 10° NNE
Cosmos 923 Rocket 3.9 22:49:12 10° NNW 22:54:29 84° WSW 22:55:53 51° SSE
Spot 4 4.1 22:53:27 45° ESE 22:54:35 58° ENE 22:59:23 10° N
Cosmos 1544 3.0 22:51:44 10° N 22:55:12 80° NNE 22:55:12 80° NNE
Cosmos 1898 Rocket 3.8 22:57:39 46° SE 22:58:16 48° ESE 23:03:24 10° NNE
Cosmos 1536 2.9 22:55:06 10° NNW 22:59:07 64° W 22:59:30 60° SW
Cosmos 1869 Rocket 3.9 22:56:04 10° NNW 23:00:19 56° W 23:01:03 48° SW
USA 308 2.8 22:56:12 10° WNW 23:00:28 68° SSW 23:00:30 68° SSW
Cosmos 2369 Rocket 3.8 23:03:27 18° E 23:03:27 18° E 23:06:59 10° ENE
SL-8 Rocket 4.1 23:03:09 10° N 23:09:28 66° ENE 23:11:34 43° SE
Cosmos 2084 Rocket 4.3 23:08:00 10° NNW 23:12:04 44° NE 23:13:20 34° E
Cosmos 1975 3.8 23:08:29 10° N 23:12:09 34° ENE 23:12:12 34° ENE
Cosmos 1943 Rocket 2.8 23:11:55 38° ESE 23:12:13 38° ESE 23:17:23 10° NE
ALOS 2 3.0 23:16:05 49° E 23:16:35 52° ENE 23:20:51 10° N
Cosmos 44 3.5 23:13:54 10° NW 23:19:23 76° NE 23:20:48 50° ESE
Cosmos 1707 Rocket 3.4 23:20:01 73° SSW 23:20:24 83° W 23:24:50 10° N
Cosmos 990 Rocket 3.9 23:20:01 54° SSW 23:21:16 88° ESE 23:26:34 10° NNE
Cosmos 1743 3.3 23:28:24 10° NNW 23:31:55 48° W 23:31:55 48° W
NOSS 3-4 (A) 4.2 23:25:32 10° NW 23:32:15 49° WSW 23:34:28 39° SSW
NOSS 3-4 (C) 4.2 23:25:38 10° NW 23:32:22 50° WSW 23:34:34 39° SSW
Cosmos 2112 Rocket 4.1 23:27:59 10° NNW 23:33:16 62° WSW 23:34:10 54° SSW
Meteor 1-18 Rocket 4.3 23:33:04 52° SE 23:34:08 63° E 23:39:41 10° NNE
Cosmos 1238 Rocket 3.8 23:28:43 10° N 23:35:09 81° W 23:36:39 53° S
Cosmos 1833 Rocket 4.4 23:32:06 10° WNW 23:35:55 19° W 23:37:23 17° WSW
SL-24 R/B - RUBIN 2 3.8 23:31:15 10° NW 23:36:49 80° SW 23:37:29 67° SSE
Cosmos 864 Rocket 4.4 23:32:03 10° N 23:38:17 83° E 23:39:57 51° SSE
SeaSat 1 3.6 23:34:28 10° NE 23:38:19 29° E 23:38:19 29° E
Cosmos 1959 Rocket 4.4 23:34:50 10° N 23:41:08 88° E 23:42:51 51° S
USA 305 4.4 23:38:24 10° WNW 23:40:45 26° W 23:40:45 26° W
ATLAS 2AS CENTAUR R/B 2.8 23:38:46 10° NW 23:46:02 63° WSW 23:47:56 47° S
USA 215 3.2 23:42:20 27° ESE 23:46:10 86° NE 23:52:45 10° NW
Cosmos 2297 3.6 23:45:51 53° SSW 23:47:18 89° ESE 23:53:01 10° NNE
Cosmos 1733 Rocket 3.6 23:48:55 10° NNW 23:53:05 47° W 23:53:07 47° W
SJ 16-02 3.7 23:52:10 11° W 23:55:19 20° NW 23:58:37 10° N
